Terminal Aerodrome Forecast
Issued by NWS Houston/Galveston, TX

Home | Current Version | Previous Version | Text Only | Print | Product List | Glossary On
Versions: 1 2 3 4 5 6 7 8 9 10 11 12 13 14 15 16 17 18 19 20 21 22 23 24 25 26 27 28 29 30 31 32 33 34 35 36 37 38 39 40 41 42 43 44 45 46 47 48 49 50
000
FTUS44 KHGX 260824
TAFGLS
TAFGLS
TAF AMD
KGLS 260824Z 2608/2706 34019KT P6SM -RA BKN060 BKN080 OVC100
     FM260900 18018KT P6SM VCTS SCT015 BKN025CB
     FM261500 17014G20KT P6SM BKN015 OVC030
     FM262200 15010KT P6SM SCT035=

USA.gov is the U.S. government's official web portal to all federal, state and local government web resources and services.